x

South Brooks (46132) Wave Buoy

5:00 - Tue 21st Feb 2017 All times are PST. -8 hours from GMT.

  • Sig Wave height 5.9ft
  • Peak Period 11s
  • Wind
    4mph, 11mph gusts
  • Sea Temp 47°f
  • Ar Temp 44°f
  • Sea Pressure 1010.6mb
  • South Brooks
  • South Brooks

More Historic Weather Station data

Upgrade to MSW Pro to gain access to the past 30 days of data for over 8000 Wavebouys and Weather Stations around the globe.

Join Pro

Comparision Forecast

View Surf forecast
   
Ter 02/21 5:00 6ft 11s 4 11 mph 1010.6mb 47f 44f
4:00 6ft 12s 2 7 mph 1010.2mb 47f 44f
3:00 5.5ft 12s 2 16 mph 1010.1mb 47f 43f
2:00 5ft 11s  -  4 mph 1009.7mb 47f 44f
1:00 6ft 11s 2 9 mph 1009.2mb 47f 44f
12:00 6ft 12s 4 13 mph 1008.6mb 47f 44f
Seg 02/20 11:00 6.5ft 12s 2 4 mph 1008.3mb 47f 44f
10:00 6ft 12s 2 7 mph 1007.9mb 47f 44f
9:00 7ft 12s 2 7 mph 1007.8mb 47f 44f
8:00 6.5ft 12s  -  4 mph 1007.5mb 47f 44f
7:00 7ft 13s 2 7 mph 1007.2mb 47f 44f
6:00 7ft 12s 2 9 mph 1006.9mb 47f 44f
5:00 7ft 12s 4 11 mph 1006.6mb 47f 44f
4:00 7ft 14s 9 11 mph 1006mb 47f 44f
3:00 8ft 13s 9 13 mph 1005.4mb 47f 44f
2:00 8ft 13s 9 13 mph 1004.8mb 47f 44f
1:00 7ft 14s 7 11 mph 1004.6mb 47f 44f
12:00 8ft 13s 7 11 mph 1004.3mb 47f 44f
11:00 8ft 13s 4 9 mph 1003.6mb 47f 44f
10:00 8.5ft 14s 2 7 mph 1002.8mb 47f 44f
9:00 9ft 14s  -  4 mph 1002.3mb 47f 44f
8:00 9.5ft 14s  -  mph 1001.8mb 47f 44f
7:00 9ft 14s  -  mph 1001.1mb 47f 43f
6:00 9.5ft 14s  -  mph 1000.9mb 47f 43f
5:00 10.5ft 14s  -  mph 1000.8mb 48f 43f
4:00 9.5ft 12s  -  mph 1000.9mb 47f 43f
3:00 10ft 14s  -  2 mph 1001.3mb 47f 43f
2:00 10ft 15s  -  4 mph 1001.4mb 48f 43f
1:00 8.5ft 16s  -  4 mph 1001.1mb 48f 43f
12:00 8ft 14s  -  4 mph 1000.6mb 48f 44f
Dom 02/19 11:00 8ft 14s 2 7 mph 1000.2mb 48f 44f
10:00 7ft 15s 2 9 mph 999.7mb 48f 44f
9:00 8ft 16s 2 11 mph 999mb 47f 44f
8:00 7ft 15s 2 9 mph 998.4mb 48f 44f
7:00 7.5ft 16s 4 13 mph 997.7mb 48f 44f
6:00 6.5ft 16s 4 11 mph 997.3mb 48f 44f
5:00 6ft 17s 4 11 mph 996.9mb 48f 44f
4:00 6.5ft 17s 7 11 mph 996.7mb 48f 44f
3:00 6ft 17s 4 9 mph 996.4mb 48f 44f
2:00 6ft 18s 4 9 mph 996.2mb 48f 43f
1:00 5ft 18s 7 11 mph 995.9mb 48f 43f
12:00 5ft 11s 2 7 mph 995.9mb 48f 42f
11:00 4.5ft 10s 2 4 mph 995.9mb 48f 41f
10:00 5.5ft 11s 2 4 mph 995.3mb 48f 42f
9:00 4.5ft 11s 2 7 mph 994.7mb 48f 43f
8:00 5ft 12s 4 9 mph 994.4mb 48f 43f
7:00 5ft 10s 2 9 mph 994.1mb 48f 43f
6:00 5ft 12s 4 9 mph 994mb 48f 43f
5:00 5.5ft 10s 2 7 mph 993.9mb 48f 43f
4:00 5.5ft 11s 2 4 mph 993.8mb 48f 43f
3:00 5.5ft 10s 4 9 mph 994.1mb 48f 43f
2:00 6ft 11s 2 7 mph 994.1mb 48f 43f
1:00 6ft 10s 2 4 mph 994.1mb 48f 43f
12:00 5ft 10s 2 7 mph 994.5mb 48f 43f
Sáb 02/18 11:00 5ft 12s 2 4 mph 994.7mb 48f 43f
10:00 5ft 12s 4 7 mph 994.7mb 48f 43f
9:00 6ft 11s 2 4 mph 994.7mb 48f 43f
8:00 6ft 11s 4 7 mph 994.5mb 48f 43f
7:00 5.5ft 10s 4 7 mph 994.4mb 48f 43f
6:00 6ft 12s 4 9 mph 994.5mb 48f 43f
5:00 6ft 12s 7 11 mph 994.6mb 48f 44f
4:00 6.5ft 11s 9 13 mph 994.9mb 48f 44f
3:00 7ft 12s 11 13 mph 995mb 48f 44f
2:00 7ft 11s 11 16 mph 995.1mb 48f 44f
1:00 8ft 12s 9 16 mph 995.5mb 48f 44f
12:00 7ft 12s 11 16 mph 995.9mb 48f 44f
11:00 7ft 12s 11 18 mph 996.2mb 48f 43f
10:00 7.5ft 10s 13 20 mph 996.5mb 48f 44f
9:00 7.5ft 11s 16 22 mph 996.6mb 47f 43f
8:00 8ft 11s 18 25 mph 997.2mb 47f 43f
7:00 7.5ft 11s 20 25 mph 997.7mb 47f 43f
6:00 8ft 12s 18 25 mph 998.4mb 48f 44f
5:00 8.5ft 12s 20 27 mph 999.1mb 48f 44f
4:00 8ft 12s 20 27 mph 999.5mb 48f 44f
3:00 8.5ft 11s 20 25 mph 999.9mb 48f 44f
2:00 9ft 11s 18 22 mph 1000.5mb 48f 44f
1:00 9ft 12s 16 22 mph 1000.8mb 48f 44f
12:00 10ft 11s 18 22 mph 1001.3mb 47f 44f
Sex 02/17 11:00 8ft 12s 16 22 mph 1002mb 47f 44f
10:00 8ft 12s 16 22 mph 1002.9mb 47f 45f
9:00 8ft 11s 13 18 mph 1003.6mb 48f 45f
7:00 8ft 13s 18 22 mph 1004.2mb 47f 45f
6:00 7.5ft 12s 13 20 mph 1004.6mb 47f 45f
5:00 8ft 11s 13 20 mph 1004.7mb 48f 45f
4:00 7ft 11s 11 16 mph 1005.3mb 48f 45f
3:00 8ft 12s 9 13 mph 1005.7mb 48f 45f